sat.trackr.live / text

‹ back to catalog

YAMAL 402

NORAD 39022 · 2012-070A

PAYLOAD ACTIVE UNKNOWN

§ Identity

Operator
Country
CIS
Launch date
2012-12-08
Launch site
TYMSC
Launch vehicle
Mass (kg)
RCS (m²)
39.81

Purposes: comms

External: N2YO · Heavens-Above · Gunter

§ Orbital elements

Epoch: 2026-09-20T05:12:24.269184Z

Period
1,436.10 min
Inclination
1.5017°
Eccentricity
0.0003584
Mean motion
1.00271848 rev/d
Perigee alt
35,771.5 km
Apogee alt
35,801.7 km
Semi-major
42,164.7 km
B*
0.0000e+0
RAAN
82.8090°
Arg perigee
90.2754°
Mean anomaly
319.0403°
Rev number
5,035

§ Raw data

YAMAL 4021 39022U 12070A   26263.21694756  .00000082  00000+0  00000+0 0  99932 39022   1.5017  82.8090 0003584  90.2754 319.0403  1.00271848 50350

JSON: /api/v1/satellites/39022 · /tle

For live sub-satellite position, see the globe view (requires WebGL).

§ Visibility from observer

Set your observer location to see the next 7 days of passes ≥ 10°. The values pass through the URL so the page stays shareable.

No JS? Fill the form by hand. The geolocation button needs JavaScript.